Voltar ao catálogo

COSMOS 1348 DEB

LostHEO
NORAD 32777·DEBRIS·🇷🇺 Russia

Lançado Apr 7, 1982 de Plesetsk Cosmodrome

Loading…

Próximas Passagens (próximas 24 horas)

TLE

ObsoletoSource: Space-Track

Época: Apr 4, 2011, 06:01 UTC

1 32777U 82029L   11094.25079110  .00000351  00000-0  10000-3 0  9990
2 32777  71.7480   6.4260 5069678 149.9533 252.6584  1.98145763 32469

Acompanhe COSMOS 1348 DEB em tempo real com AllMySat

Download on the App Store